GEFSSE_prec_meanprecacc_294.txt.gz
Total_Precipitation_Accumulation
2.53 2.45 3.63 3.76 3.14 2.44 2.24 2.20 2.02 1.88 1.87 1.86 1.69 1.58 1.45 1.41 1.27 1.12 0.98 0.90 0.88 0.89 0.96 0.96 1.00 1.10 1.12 1.05 0.97 1.20 1.29 1.24 1.18 1.16 1.30 1.49 1.66 1.86 2.06 2.28 2.54 2.79 2.55
2.09 2.09 3.35 3.57 3.01 2.38 2.07 2.04 1.99 1.88 1.97 1.88 1.82 1.69 1.58 1.42 1.28 1.15 0.94 0.92 0.93 0.93 0.91 0.94 1.00 1.00 1.04 1.11 1.11 1.27 1.31 1.18 1.08 1.16 1.49 1.77 1.81 1.87 1.97 2.03 2.38 2.65 2.43
1.62 1.72 2.55 3.23 2.91 2.40 2.07 1.93 1.97 1.92 2.03 1.98 1.95 1.76 1.62 1.48 1.39 1.22 1.08 1.14 1.10 1.00 0.94 0.90 0.99 1.02 1.03 1.22 1.24 1.26 1.22 1.17 1.14 1.34 1.88 2.65 2.32 1.95 1.97 2.02 2.22 2.14 2.15
1.48 1.57 1.92 2.67 2.55 2.12 1.92 1.91 2.02 2.04 2.16 2.07 1.89 1.68 1.58 1.57 1.51 1.33 1.21 1.31 1.14 1.02 0.97 0.95 1.02 1.11 1.08 1.20 1.21 1.19 1.13 1.18 1.36 1.51 1.94 2.52 2.65 2.21 2.12 2.23 2.18 2.08 2.15
1.45 1.54 2.07 2.66 2.39 2.08 1.89 2.06 2.26 2.25 2.22 2.03 1.76 1.56 1.55 1.60 1.56 1.49 1.45 1.41 1.15 1.06 0.99 0.97 1.05 1.07 1.06 1.12 1.08 1.14 1.18 1.38 1.65 1.58 1.80 2.22 2.75 2.60 2.14 2.15 2.19 2.18 2.33
1.46 1.56 1.96 2.50 2.35 2.13 1.96 2.18 2.30 2.32 2.31 2.18 1.90 1.64 1.59 1.57 1.53 1.49 1.51 1.36 1.20 1.10 1.00 0.97 1.03 1.09 1.07 1.09 1.11 1.13 1.24 1.46 1.53 1.60 1.87 2.24 2.55 2.52 2.12 2.06 2.16 2.38 2.38
1.34 1.37 1.61 2.22 2.30 2.16 2.07 2.28 2.33 2.37 2.43 2.38 2.08 1.87 1.71 1.56 1.51 1.50 1.52 1.38 1.29 1.20 1.13 1.10 1.13 1.13 1.08 1.13 1.10 1.06 1.06 1.10 1.13 1.39 1.64 2.21 2.34 2.28 2.14 2.06 2.05 2.16 2.28
1.43 1.34 1.33 1.96 2.22 2.20 2.25 2.30 2.28 2.29 2.32 2.35 2.13 1.92 1.72 1.57 1.50 1.60 1.62 1.43 1.34 1.21 1.15 1.17 1.22 1.27 1.23 1.20 1.17 1.10 1.05 0.89 0.85 1.07 1.39 1.94 2.29 2.28 2.17 2.21 2.26 2.22 2.36
1.57 1.51 1.39 1.53 1.83 2.17 2.23 2.11 2.10 2.07 2.08 2.18 2.01 1.87 1.67 1.55 1.45 1.51 1.55 1.43 1.38 1.34 1.31 1.29 1.39 1.39 1.25 1.23 1.20 1.12 1.05 0.88 0.89 1.06 1.08 1.73 2.27 2.33 2.11 2.12 2.35 2.48 2.51
1.76 1.63 1.44 1.37 1.45 1.54 1.76 1.92 2.06 2.11 2.09 2.15 1.96 1.74 1.57 1.48 1.35 1.41 1.38 1.35 1.43 1.48 1.53 1.52 1.53 1.46 1.39 1.30 1.19 1.08 0.99 0.81 0.89 0.96 1.25 1.67 2.24 2.43 2.26 2.07 2.06 2.14 2.19
1.54 1.45 1.49 1.48 1.50 1.55 1.50 1.57 1.87 2.01 2.03 1.90 1.82 1.70 1.51 1.23 1.10 1.20 1.21 1.43 1.54 1.64 1.69 1.70 1.65 1.60 1.45 1.27 1.17 1.00 0.82 0.78 0.92 1.04 1.45 1.93 2.36 2.56 2.36 2.04 1.91 1.86 1.92
1.25 1.23 1.30 1.33 1.45 1.51 1.37 1.58 1.86 1.70 1.60 1.36 1.39 1.26 1.27 1.17 1.10 0.94 1.11 1.48 1.62 1.63 1.62 1.67 1.71 1.51 1.22 0.92 0.88 0.82 0.73 0.72 0.78 0.92 1.46 2.16 2.47 2.55 2.29 2.12 2.03 1.94 1.99
1.05 1.03 0.99 1.06 1.12 1.25 1.41 1.65 1.94 2.00 1.80 1.57 1.32 1.24 1.27 1.16 1.04 0.94 0.96 1.12 1.26 1.28 1.14 1.16 1.17 1.03 0.94 0.86 0.84 0.74 0.72 0.70 0.78 0.92 1.57 2.21 2.49 2.58 2.40 2.28 2.27 2.26 2.24
0.87 0.98 0.81 0.71 0.86 1.04 1.16 1.29 1.57 1.64 1.57 1.43 1.22 1.14 1.25 1.24 1.10 1.06 1.06 1.11 1.13 1.12 1.14 1.11 1.14 1.09 0.91 0.82 0.83 0.87 0.84 0.80 0.88 1.09 1.59 2.08 2.46 2.71 2.64 2.55 2.55 2.50 2.59
0.86 0.92 0.83 0.72 0.71 0.79 0.85 0.96 1.11 1.27 1.35 1.36 1.31 1.12 1.14 1.24 1.19 1.17 1.12 1.17 1.07 0.99 1.05 1.11 1.12 1.14 1.03 0.89 0.86 0.88 0.97 0.91 0.92 1.05 1.34 1.77 2.30 2.73 2.92 2.86 2.63 2.50 2.53
0.78 0.88 0.87 0.77 0.76 0.78 0.75 0.75 0.75 0.90 1.08 1.20 1.23 1.13 1.16 1.23 1.24 1.31 1.25 1.18 1.11 1.02 1.05 1.22 1.17 1.19 1.16 1.09 0.95 0.96 0.99 0.95 0.93 0.96 1.09 1.44 1.79 2.17 2.64 2.99 2.83 2.58 2.38
0.75 0.79 0.85 0.83 0.86 0.88 0.84 0.81 0.67 0.71 0.82 0.99 1.13 1.13 1.20 1.16 1.11 1.19 1.20 1.13 1.12 1.13 1.13 1.18 1.22 1.28 1.19 1.11 1.09 1.05 1.04 0.98 0.90 0.92 0.89 1.04 1.15 1.46 1.90 2.36 2.68 2.70 2.57
0.81 0.85 0.91 0.91 0.93 0.96 0.97 0.95 0.87 0.91 0.99 1.06 1.21 1.19 1.17 1.22 1.18 1.17 1.20 1.18 1.22 1.25 1.23 1.26 1.33 1.33 1.28 1.27 1.24 1.22 1.08 1.04 0.96 0.92 0.87 0.89 0.95 0.95 1.17 1.47 1.88 2.28 2.53
0.77 0.81 0.86 0.95 0.97 0.99 1.02 1.10 1.21 1.26 1.26 1.26 1.32 1.26 1.17 1.21 1.26 1.38 1.41 1.41 1.37 1.39 1.38 1.33 1.36 1.28 1.28 1.30 1.24 1.26 1.21 1.16 1.06 0.88 0.92 0.93 0.93 0.87 0.92 0.89 1.05 1.33 1.73
0.68 0.74 0.80 0.87 1.03 1.14 1.18 1.18 1.34 1.40 1.47 1.53 1.57 1.42 1.30 1.36 1.49 1.68 1.77 1.67 1.63 1.62 1.61 1.55 1.60 1.49 1.38 1.41 1.30 1.28 1.24 1.15 1.15 1.06 1.00 0.97 1.02 0.97 0.90 0.80 0.78 0.74 0.97
0.57 0.62 0.70 0.76 0.92 1.02 1.06 1.19 1.39 1.55 1.72 1.87 1.94 1.82 1.67 1.65 1.81 1.95 1.88 1.96 1.98 1.84 1.84 1.90 1.94 1.91 1.73 1.60 1.64 1.52 1.27 1.08 1.12 1.05 0.99 1.03 1.08 1.16 1.16 1.03 0.89 0.80 0.79
0.37 0.41 0.50 0.59 0.65 0.79 0.96 1.21 1.42 1.71 1.78 1.85 1.97 2.02 1.94 1.88 2.04 2.09 2.16 2.24 2.27 2.27 2.20 2.09 2.21 2.36 2.10 1.88 1.97 2.24 1.87 1.51 1.14 0.90 0.96 0.98 1.06 1.29 1.34 1.15 0.96 0.88 0.87
0.28 0.31 0.40 0.53 0.65 0.87 1.10 1.42 1.70 1.99 2.08 2.12 2.07 2.11 2.16 2.20 2.26 2.30 2.36 2.41 2.42 2.27 2.26 2.36 2.49 2.83 2.65 2.28 2.08 2.33 2.18 1.87 1.57 1.12 0.98 0.98 1.06 1.23 1.35 1.37 1.25 1.18 1.08
0.26 0.32 0.46 0.66 0.87 1.13 1.45 1.83 2.09 2.34 2.46 2.29 2.25 2.24 2.22 2.18 2.22 2.34 2.35 2.33 2.30 2.24 2.30 2.36 2.41 2.83 3.05 2.75 2.40 1.99 1.78 1.73 1.83 1.55 1.12 1.03 1.10 1.10 1.23 1.32 1.27 1.33 1.33
0.41 0.50 0.68 0.95 1.26 1.52 1.76 1.96 2.20 2.33 2.33 2.27 2.22 2.23 2.13 2.09 2.08 2.11 2.11 2.22 2.24 2.27 2.34 2.50 2.63 2.89 2.92 2.91 2.72 2.49 2.26 1.93 1.59 1.66 1.60 1.30 1.22 1.11 1.20 1.33 1.38 1.47 1.50
0.59 0.75 0.94 1.13 1.44 1.62 1.75 1.86 2.02 2.16 2.21 2.19 2.18 2.21 2.20 2.16 2.05 1.98 1.92 2.01 2.14 2.29 2.34 2.43 2.60 2.85 2.96 3.04 2.95 2.67 2.56 2.39 2.09 1.97 1.71 1.55 1.52 1.28 1.24 1.28 1.31 1.44 1.60

GEFSSE_prec_meanprecacc_300.txt.gz
Total_Precipitation_Accumulation
2.61 2.51 3.67 3.81 3.20 2.50 2.28 2.24 2.07 1.93 1.92 1.92 1.76 1.64 1.51 1.46 1.31 1.17 1.04 0.96 0.93 0.94 0.99 1.00 1.06 1.18 1.19 1.10 1.02 1.25 1.32 1.28 1.23 1.22 1.37 1.57 1.74 1.93 2.11 2.32 2.60 2.87 2.61
2.13 2.12 3.39 3.63 3.08 2.43 2.10 2.07 2.05 1.94 2.01 1.94 1.90 1.76 1.65 1.48 1.35 1.21 1.01 0.99 1.00 0.98 0.95 0.99 1.08 1.09 1.10 1.15 1.16 1.31 1.35 1.22 1.13 1.22 1.58 1.89 1.90 1.94 2.02 2.07 2.43 2.74 2.49
1.65 1.75 2.58 3.28 2.97 2.44 2.11 1.96 2.00 1.99 2.10 2.03 2.01 1.82 1.67 1.54 1.45 1.29 1.15 1.20 1.15 1.04 0.98 0.95 1.07 1.09 1.09 1.27 1.28 1.30 1.26 1.21 1.19 1.41 2.04 2.83 2.45 2.04 2.01 2.05 2.26 2.20 2.20
1.51 1.60 1.95 2.70 2.58 2.16 1.95 1.94 2.05 2.09 2.21 2.12 1.95 1.74 1.63 1.61 1.55 1.38 1.27 1.36 1.19 1.06 1.01 1.00 1.10 1.20 1.14 1.25 1.25 1.22 1.17 1.24 1.43 1.57 2.06 2.72 2.83 2.30 2.17 2.27 2.23 2.15 2.22
1.48 1.58 2.10 2.69 2.43 2.11 1.92 2.08 2.28 2.28 2.26 2.06 1.80 1.62 1.62 1.66 1.60 1.52 1.50 1.46 1.21 1.11 1.03 1.01 1.10 1.13 1.12 1.17 1.12 1.18 1.23 1.44 1.71 1.63 1.87 2.34 2.89 2.71 2.21 2.21 2.25 2.26 2.41
1.49 1.59 2.00 2.55 2.41 2.18 1.99 2.21 2.33 2.35 2.36 2.23 1.97 1.73 1.67 1.64 1.60 1.54 1.57 1.42 1.25 1.13 1.03 1.00 1.06 1.12 1.11 1.14 1.16 1.17 1.28 1.50 1.58 1.67 1.94 2.31 2.68 2.68 2.24 2.14 2.25 2.47 2.48
1.37 1.39 1.63 2.28 2.38 2.23 2.12 2.33 2.39 2.43 2.54 2.50 2.22 2.01 1.80 1.64 1.58 1.56 1.58 1.43 1.33 1.24 1.16 1.12 1.14 1.15 1.11 1.16 1.13 1.09 1.09 1.12 1.16 1.44 1.68 2.25 2.41 2.41 2.32 2.18 2.14 2.24 2.34
1.44 1.35 1.34 1.97 2.24 2.23 2.27 2.32 2.30 2.32 2.37 2.41 2.17 1.96 1.76 1.61 1.55 1.63 1.66 1.47 1.38 1.25 1.19 1.20 1.25 1.29 1.25 1.23 1.19 1.12 1.07 0.90 0.87 1.09 1.43 1.99 2.35 2.35 2.29 2.35 2.36 2.30 2.42
1.57 1.51 1.41 1.54 1.85 2.18 2.24 2.11 2.11 2.09 2.10 2.22 2.04 1.90 1.69 1.57 1.49 1.55 1.60 1.48 1.41 1.37 1.33 1.31 1.41 1.41 1.27 1.24 1.21 1.13 1.07 0.89 0.90 1.08 1.13 1.79 2.32 2.38 2.20 2.23 2.46 2.56 2.57
1.76 1.63 1.44 1.39 1.47 1.56 1.78 1.93 2.07 2.12 2.11 2.18 1.99 1.77 1.61 1.51 1.37 1.44 1.42 1.39 1.46 1.51 1.55 1.54 1.55 1.48 1.41 1.31 1.20 1.10 1.01 0.82 0.91 0.99 1.31 1.75 2.31 2.48 2.32 2.14 2.14 2.21 2.26
1.55 1.45 1.49 1.49 1.52 1.56 1.52 1.58 1.88 2.02 2.04 1.92 1.85 1.73 1.55 1.29 1.15 1.24 1.25 1.47 1.56 1.67 1.73 1.73 1.67 1.62 1.46 1.28 1.18 1.01 0.83 0.80 0.95 1.09 1.52 2.00 2.43 2.62 2.41 2.09 1.96 1.92 1.99
1.27 1.24 1.31 1.34 1.46 1.51 1.37 1.58 1.88 1.73 1.63 1.39 1.41 1.29 1.31 1.24 1.16 0.96 1.12 1.49 1.64 1.66 1.65 1.70 1.74 1.52 1.23 0.93 0.89 0.83 0.74 0.72 0.80 0.96 1.50 2.20 2.51 2.61 2.33 2.16 2.10 2.03 2.08
1.07 1.04 1.01 1.07 1.12 1.25 1.42 1.66 1.95 2.02 1.82 1.59 1.35 1.27 1.31 1.23 1.10 0.99 1.00 1.15 1.28 1.30 1.17 1.19 1.20 1.06 0.96 0.88 0.86 0.75 0.73 0.71 0.79 0.94 1.61 2.24 2.52 2.62 2.45 2.31 2.32 2.34 2.33
0.87 0.98 0.81 0.72 0.87 1.04 1.16 1.30 1.57 1.64 1.58 1.46 1.25 1.16 1.27 1.29 1.17 1.12 1.11 1.14 1.16 1.14 1.17 1.14 1.17 1.12 0.93 0.83 0.85 0.89 0.86 0.81 0.89 1.12 1.63 2.12 2.50 2.75 2.68 2.58 2.59 2.57 2.69
0.88 0.92 0.84 0.73 0.72 0.79 0.85 0.97 1.11 1.27 1.35 1.37 1.33 1.14 1.17 1.29 1.25 1.21 1.15 1.20 1.08 1.01 1.07 1.13 1.15 1.16 1.05 0.91 0.88 0.91 0.99 0.93 0.93 1.07 1.37 1.80 2.34 2.78 2.97 2.90 2.67 2.55 2.61
0.81 0.90 0.89 0.79 0.78 0.80 0.76 0.76 0.76 0.91 1.09 1.21 1.25 1.15 1.17 1.27 1.28 1.33 1.27 1.21 1.13 1.04 1.07 1.24 1.20 1.21 1.18 1.11 0.97 0.98 1.01 0.96 0.94 0.98 1.12 1.48 1.83 2.23 2.72 3.07 2.88 2.63 2.43
0.78 0.82 0.87 0.85 0.87 0.89 0.85 0.82 0.68 0.72 0.83 1.00 1.14 1.14 1.21 1.19 1.13 1.20 1.22 1.16 1.14 1.15 1.16 1.20 1.24 1.29 1.21 1.13 1.10 1.06 1.05 1.01 0.93 0.96 0.93 1.07 1.18 1.52 1.98 2.43 2.75 2.76 2.63
0.82 0.87 0.93 0.93 0.95 0.98 0.99 0.97 0.89 0.92 1.01 1.08 1.24 1.22 1.20 1.24 1.20 1.19 1.22 1.21 1.25 1.29 1.27 1.30 1.36 1.35 1.29 1.28 1.25 1.22 1.10 1.07 1.01 0.99 0.93 0.92 0.98 0.99 1.24 1.55 1.94 2.34 2.58
0.77 0.81 0.87 0.96 0.99 1.02 1.05 1.13 1.25 1.28 1.28 1.29 1.35 1.29 1.20 1.22 1.27 1.40 1.43 1.43 1.40 1.41 1.41 1.35 1.37 1.29 1.29 1.31 1.24 1.27 1.22 1.18 1.12 0.98 1.00 0.97 0.96 0.90 0.97 0.97 1.13 1.39 1.78
0.69 0.74 0.81 0.88 1.04 1.16 1.21 1.21 1.37 1.43 1.49 1.57 1.60 1.45 1.32 1.37 1.50 1.69 1.78 1.68 1.64 1.63 1.62 1.55 1.61 1.50 1.38 1.42 1.31 1.28 1.25 1.16 1.19 1.14 1.10 1.04 1.06 1.01 0.94 0.84 0.82 0.77 1.02
0.58 0.63 0.71 0.77 0.93 1.04 1.09 1.22 1.42 1.58 1.74 1.89 1.97 1.83 1.68 1.66 1.82 1.96 1.89 1.97 1.99 1.85 1.86 1.91 1.95 1.91 1.73 1.60 1.65 1.54 1.29 1.10 1.17 1.12 1.07 1.10 1.13 1.21 1.20 1.05 0.90 0.82 0.81
0.37 0.42 0.52 0.62 0.68 0.82 0.99 1.24 1.43 1.73 1.79 1.87 2.00 2.04 1.95 1.89 2.05 2.09 2.17 2.25 2.28 2.28 2.21 2.11 2.22 2.37 2.11 1.88 1.98 2.26 1.89 1.55 1.19 0.96 1.03 1.05 1.12 1.34 1.38 1.18 0.97 0.89 0.88
0.29 0.32 0.42 0.54 0.68 0.91 1.13 1.46 1.74 2.02 2.10 2.15 2.10 2.14 2.17 2.21 2.27 2.31 2.37 2.42 2.43 2.28 2.27 2.38 2.51 2.85 2.67 2.30 2.09 2.36 2.20 1.90 1.62 1.18 1.04 1.05 1.11 1.27 1.38 1.39 1.27 1.20 1.10
0.27 0.34 0.47 0.67 0.89 1.15 1.48 1.86 2.13 2.38 2.48 2.31 2.27 2.27 2.24 2.19 2.23 2.35 2.36 2.34 2.30 2.24 2.31 2.37 2.42 2.84 3.06 2.77 2.42 2.01 1.79 1.76 1.86 1.60 1.18 1.09 1.14 1.13 1.24 1.33 1.29 1.35 1.34
0.42 0.51 0.70 0.97 1.27 1.54 1.78 1.98 2.23 2.36 2.36 2.30 2.25 2.25 2.15 2.10 2.08 2.12 2.12 2.22 2.24 2.27 2.34 2.50 2.64 2.91 2.94 2.93 2.75 2.52 2.28 1.96 1.61 1.70 1.66 1.36 1.27 1.14 1.22 1.34 1.39 1.48 1.52
0.60 0.77 0.96 1.14 1.45 1.64 1.77 1.87 2.03 2.18 2.22 2.21 2.21 2.23 2.21 2.16 2.06 1.98 1.92 2.01 2.15 2.29 2.34 2.44 2.60 2.86 2.97 3.06 2.98 2.69 2.58 2.41 2.13 2.01 1.75 1.61 1.57 1.31 1.26 1.30 1.33 1.46 1.62

GEFSSE_prec_meanprecacc_306.txt.gz
Total_Precipitation_Accumulation
2.66 2.54 3.72 3.87 3.25 2.53 2.32 2.27 2.09 1.96 1.94 1.98 1.82 1.69 1.56 1.50 1.36 1.22 1.08 1.00 0.98 0.98 1.03 1.05 1.12 1.24 1.24 1.15 1.07 1.30 1.37 1.33 1.29 1.28 1.43 1.64 1.80 1.98 2.17 2.38 2.64 2.92 2.67
2.17 2.15 3.43 3.68 3.12 2.47 2.14 2.09 2.06 1.95 2.02 1.97 1.95 1.81 1.70 1.53 1.39 1.25 1.03 1.02 1.03 1.02 0.99 1.03 1.14 1.15 1.14 1.19 1.19 1.36 1.38 1.25 1.18 1.28 1.64 1.94 1.94 2.00 2.09 2.12 2.48 2.80 2.54
1.69 1.78 2.61 3.31 2.99 2.47 2.13 1.97 2.01 2.00 2.11 2.06 2.06 1.88 1.72 1.58 1.50 1.33 1.17 1.21 1.17 1.07 1.00 0.98 1.12 1.17 1.14 1.31 1.32 1.34 1.29 1.25 1.24 1.47 2.11 2.88 2.50 2.12 2.09 2.09 2.31 2.27 2.27
1.54 1.62 1.96 2.72 2.61 2.18 1.97 1.96 2.07 2.10 2.23 2.15 2.00 1.80 1.66 1.64 1.57 1.41 1.30 1.39 1.21 1.08 1.02 1.02 1.14 1.25 1.18 1.30 1.31 1.26 1.21 1.28 1.48 1.62 2.13 2.77 2.89 2.37 2.24 2.31 2.28 2.20 2.29
1.49 1.59 2.12 2.71 2.45 2.13 1.93 2.10 2.31 2.31 2.29 2.10 1.86 1.67 1.66 1.68 1.62 1.54 1.52 1.48 1.22 1.12 1.05 1.04 1.13 1.17 1.16 1.21 1.19 1.23 1.27 1.48 1.75 1.67 1.97 2.47 2.99 2.79 2.27 2.25 2.29 2.31 2.46
1.51 1.60 2.02 2.58 2.42 2.20 2.01 2.22 2.34 2.38 2.40 2.27 2.00 1.76 1.70 1.67 1.62 1.56 1.59 1.43 1.26 1.15 1.04 1.01 1.08 1.14 1.14 1.18 1.20 1.21 1.33 1.53 1.60 1.69 1.99 2.40 2.76 2.77 2.33 2.21 2.32 2.54 2.54
1.37 1.39 1.64 2.30 2.40 2.25 2.14 2.35 2.41 2.46 2.59 2.55 2.27 2.06 1.84 1.68 1.61 1.58 1.60 1.45 1.35 1.27 1.18 1.14 1.16 1.17 1.13 1.19 1.16 1.12 1.12 1.15 1.18 1.45 1.70 2.29 2.47 2.49 2.42 2.28 2.23 2.31 2.41
1.45 1.35 1.35 1.99 2.25 2.24 2.28 2.33 2.31 2.34 2.40 2.44 2.21 1.99 1.79 1.64 1.58 1.66 1.68 1.50 1.41 1.28 1.22 1.22 1.27 1.32 1.27 1.24 1.21 1.15 1.10 0.91 0.88 1.11 1.45 2.01 2.40 2.41 2.36 2.45 2.47 2.40 2.49
1.58 1.52 1.41 1.55 1.86 2.20 2.25 2.12 2.11 2.09 2.11 2.24 2.07 1.92 1.71 1.60 1.51 1.58 1.63 1.52 1.44 1.39 1.36 1.33 1.43 1.44 1.30 1.26 1.23 1.16 1.10 0.89 0.91 1.10 1.15 1.82 2.37 2.42 2.25 2.30 2.55 2.68 2.68
1.77 1.64 1.45 1.39 1.48 1.57 1.79 1.93 2.07 2.13 2.12 2.19 2.01 1.79 1.63 1.53 1.39 1.46 1.45 1.42 1.49 1.53 1.58 1.56 1.58 1.52 1.45 1.34 1.22 1.11 1.02 0.83 0.92 1.00 1.33 1.78 2.35 2.52 2.35 2.17 2.18 2.28 2.36
1.56 1.46 1.50 1.50 1.53 1.57 1.52 1.58 1.89 2.03 2.06 1.94 1.86 1.75 1.57 1.30 1.15 1.24 1.27 1.50 1.59 1.69 1.76 1.77 1.72 1.66 1.49 1.30 1.19 1.02 0.84 0.80 0.96 1.10 1.54 2.04 2.48 2.66 2.45 2.13 2.00 1.98 2.05
1.29 1.25 1.32 1.35 1.47 1.52 1.37 1.59 1.88 1.73 1.64 1.40 1.42 1.29 1.32 1.24 1.17 0.97 1.14 1.52 1.66 1.68 1.66 1.72 1.78 1.58 1.27 0.95 0.90 0.83 0.74 0.73 0.80 0.97 1.53 2.23 2.56 2.65 2.38 2.20 2.13 2.07 2.11
1.08 1.05 1.01 1.07 1.12 1.25 1.42 1.66 1.96 2.02 1.83 1.61 1.37 1.28 1.32 1.23 1.11 0.99 1.01 1.16 1.29 1.32 1.18 1.20 1.22 1.09 0.99 0.90 0.87 0.76 0.73 0.72 0.79 0.95 1.63 2.27 2.56 2.68 2.50 2.35 2.36 2.38 2.37
0.89 0.99 0.82 0.73 0.88 1.04 1.16 1.30 1.58 1.65 1.58 1.46 1.26 1.17 1.28 1.30 1.18 1.13 1.11 1.15 1.16 1.14 1.17 1.14 1.19 1.15 0.97 0.87 0.86 0.90 0.87 0.82 0.90 1.12 1.64 2.14 2.53 2.80 2.72 2.61 2.63 2.61 2.73
0.89 0.94 0.85 0.73 0.72 0.80 0.86 0.97 1.12 1.28 1.35 1.38 1.34 1.16 1.17 1.29 1.25 1.22 1.16 1.21 1.09 1.01 1.08 1.14 1.16 1.18 1.08 0.93 0.89 0.91 1.00 0.93 0.93 1.08 1.37 1.82 2.36 2.83 3.02 2.93 2.71 2.60 2.66
0.83 0.93 0.91 0.80 0.78 0.80 0.77 0.76 0.77 0.91 1.09 1.21 1.25 1.16 1.18 1.27 1.28 1.34 1.27 1.21 1.15 1.06 1.09 1.25 1.21 1.23 1.20 1.13 0.98 0.99 1.01 0.96 0.94 0.98 1.13 1.49 1.85 2.27 2.77 3.12 2.94 2.69 2.48
0.80 0.85 0.91 0.89 0.90 0.91 0.87 0.83 0.69 0.73 0.83 1.00 1.15 1.14 1.22 1.19 1.13 1.20 1.22 1.16 1.15 1.16 1.18 1.22 1.26 1.32 1.23 1.15 1.11 1.07 1.06 1.01 0.93 0.96 0.93 1.08 1.20 1.56 2.04 2.50 2.82 2.83 2.68
0.83 0.89 0.95 0.95 0.99 1.02 1.03 1.00 0.91 0.93 1.01 1.09 1.25 1.23 1.20 1.24 1.21 1.20 1.22 1.22 1.25 1.29 1.28 1.31 1.37 1.36 1.31 1.29 1.26 1.23 1.11 1.08 1.02 1.00 0.93 0.93 1.00 1.03 1.29 1.60 2.00 2.39 2.63
0.79 0.83 0.88 0.97 1.02 1.06 1.11 1.19 1.28 1.31 1.30 1.30 1.37 1.31 1.21 1.23 1.28 1.40 1.43 1.44 1.40 1.41 1.41 1.36 1.39 1.30 1.31 1.33 1.25 1.28 1.23 1.18 1.12 0.99 1.01 0.98 0.99 0.94 1.01 1.02 1.19 1.44 1.83
0.71 0.76 0.83 0.90 1.07 1.19 1.26 1.28 1.43 1.48 1.53 1.59 1.63 1.47 1.34 1.38 1.51 1.70 1.78 1.68 1.64 1.64 1.62 1.56 1.62 1.51 1.40 1.43 1.32 1.30 1.26 1.17 1.20 1.16 1.13 1.08 1.12 1.05 0.98 0.88 0.87 0.83 1.07
0.60 0.65 0.74 0.80 0.96 1.06 1.12 1.26 1.47 1.62 1.79 1.92 1.99 1.85 1.70 1.67 1.82 1.97 1.89 1.97 1.99 1.85 1.86 1.92 1.95 1.92 1.74 1.61 1.66 1.55 1.30 1.11 1.17 1.14 1.13 1.18 1.19 1.26 1.24 1.09 0.95 0.87 0.87
0.38 0.43 0.53 0.65 0.72 0.86 1.03 1.29 1.50 1.79 1.85 1.90 2.02 2.06 1.96 1.90 2.05 2.10 2.17 2.25 2.28 2.28 2.22 2.11 2.22 2.37 2.12 1.89 1.99 2.27 1.89 1.55 1.20 0.97 1.07 1.13 1.18 1.40 1.42 1.21 1.01 0.93 0.91
0.30 0.33 0.42 0.55 0.70 0.94 1.18 1.50 1.78 2.07 2.18 2.22 2.15 2.18 2.20 2.22 2.28 2.31 2.37 2.42 2.43 2.28 2.27 2.38 2.51 2.86 2.67 2.31 2.10 2.36 2.21 1.90 1.62 1.18 1.07 1.12 1.18 1.34 1.42 1.42 1.29 1.22 1.12
0.28 0.35 0.48 0.68 0.91 1.18 1.51 1.89 2.16 2.41 2.54 2.37 2.33 2.32 2.28 2.21 2.24 2.36 2.36 2.34 2.30 2.24 2.31 2.38 2.43 2.85 3.07 2.78 2.43 2.02 1.80 1.76 1.87 1.62 1.21 1.13 1.19 1.19 1.29 1.37 1.31 1.37 1.36
0.43 0.52 0.70 0.98 1.29 1.56 1.81 2.01 2.26 2.40 2.40 2.35 2.31 2.31 2.21 2.15 2.11 2.13 2.13 2.23 2.24 2.28 2.34 2.50 2.64 2.91 2.94 2.94 2.76 2.54 2.30 1.97 1.63 1.73 1.69 1.39 1.30 1.18 1.26 1.38 1.43 1.51 1.54
0.62 0.78 0.97 1.16 1.47 1.66 1.80 1.91 2.07 2.22 2.26 2.25 2.25 2.29 2.27 2.22 2.09 2.00 1.93 2.01 2.15 2.29 2.34 2.44 2.60 2.86 2.98 3.06 2.99 2.70 2.59 2.43 2.15 2.04 1.80 1.64 1.59 1.34 1.29 1.32 1.36 1.49 1.65

GEFSSE_prec_meanprecacc_312.txt.gz
Total_Precipitation_Accumulation
2.68 2.55 3.79 4.00 3.34 2.56 2.36 2.33 2.15 2.01 2.01 2.06 1.88 1.75 1.63 1.60 1.47 1.36 1.19 1.09 1.05 1.05 1.12 1.11 1.17 1.29 1.29 1.20 1.10 1.34 1.43 1.39 1.37 1.35 1.51 1.70 1.86 2.06 2.26 2.46 2.72 2.97 2.74
2.19 2.18 3.49 3.75 3.18 2.51 2.18 2.13 2.09 1.99 2.06 2.04 2.02 1.85 1.76 1.61 1.47 1.35 1.15 1.11 1.11 1.08 1.05 1.10 1.19 1.20 1.21 1.24 1.23 1.39 1.42 1.30 1.25 1.37 1.72 2.00 2.00 2.07 2.16 2.19 2.55 2.84 2.61
1.70 1.80 2.65 3.36 3.03 2.52 2.16 2.00 2.04 2.03 2.15 2.12 2.12 1.92 1.77 1.63 1.56 1.40 1.23 1.29 1.26 1.13 1.05 1.04 1.18 1.25 1.24 1.38 1.37 1.38 1.33 1.29 1.30 1.55 2.17 2.90 2.53 2.20 2.16 2.15 2.36 2.31 2.32
1.55 1.63 1.98 2.76 2.64 2.21 2.00 1.99 2.11 2.14 2.27 2.20 2.07 1.87 1.72 1.69 1.61 1.46 1.36 1.43 1.27 1.17 1.07 1.06 1.19 1.33 1.27 1.36 1.35 1.30 1.25 1.33 1.53 1.66 2.15 2.77 2.91 2.42 2.31 2.37 2.33 2.25 2.34
1.50 1.60 2.15 2.74 2.47 2.15 1.96 2.13 2.35 2.37 2.34 2.17 1.94 1.74 1.71 1.73 1.67 1.59 1.57 1.52 1.26 1.17 1.08 1.07 1.17 1.21 1.19 1.23 1.21 1.25 1.29 1.51 1.78 1.69 2.00 2.50 3.05 2.85 2.35 2.31 2.34 2.36 2.52
1.52 1.61 2.05 2.63 2.45 2.22 2.03 2.25 2.38 2.43 2.48 2.38 2.09 1.82 1.74 1.71 1.67 1.60 1.62 1.46 1.30 1.18 1.07 1.04 1.11 1.17 1.16 1.20 1.21 1.24 1.36 1.57 1.62 1.72 2.05 2.47 2.87 2.85 2.41 2.27 2.37 2.60 2.61
1.38 1.41 1.66 2.34 2.43 2.27 2.17 2.38 2.45 2.50 2.67 2.63 2.33 2.12 1.90 1.72 1.66 1.62 1.64 1.48 1.37 1.28 1.21 1.16 1.18 1.20 1.17 1.22 1.19 1.15 1.16 1.19 1.21 1.48 1.75 2.38 2.57 2.57 2.49 2.35 2.30 2.41 2.52
1.46 1.37 1.37 2.02 2.28 2.27 2.31 2.36 2.35 2.37 2.44 2.49 2.26 2.06 1.86 1.70 1.63 1.70 1.72 1.53 1.43 1.30 1.24 1.24 1.30 1.35 1.31 1.29 1.25 1.18 1.12 0.93 0.90 1.12 1.47 2.06 2.48 2.49 2.43 2.51 2.55 2.50 2.61
1.59 1.53 1.42 1.56 1.87 2.22 2.27 2.14 2.15 2.13 2.15 2.28 2.12 1.97 1.77 1.66 1.57 1.62 1.66 1.55 1.48 1.43 1.38 1.36 1.47 1.47 1.34 1.31 1.27 1.19 1.11 0.90 0.91 1.10 1.17 1.85 2.42 2.48 2.30 2.36 2.61 2.81 2.83
1.78 1.64 1.46 1.40 1.49 1.58 1.80 1.95 2.10 2.16 2.15 2.23 2.04 1.82 1.67 1.57 1.45 1.52 1.49 1.47 1.55 1.58 1.63 1.62 1.64 1.58 1.50 1.38 1.26 1.14 1.04 0.85 0.93 1.02 1.34 1.80 2.39 2.57 2.39 2.21 2.23 2.34 2.43
1.56 1.46 1.50 1.51 1.53 1.58 1.52 1.59 1.90 2.04 2.08 1.97 1.88 1.76 1.58 1.32 1.18 1.28 1.33 1.57 1.66 1.75 1.81 1.83 1.79 1.72 1.55 1.34 1.22 1.04 0.86 0.82 0.97 1.10 1.55 2.07 2.52 2.70 2.47 2.15 2.03 2.01 2.09
1.30 1.25 1.32 1.35 1.47 1.52 1.37 1.59 1.89 1.73 1.64 1.41 1.42 1.29 1.32 1.25 1.17 0.98 1.17 1.57 1.72 1.72 1.70 1.76 1.81 1.60 1.30 0.97 0.92 0.85 0.75 0.73 0.80 0.97 1.56 2.29 2.62 2.71 2.42 2.22 2.15 2.09 2.14
1.10 1.06 1.02 1.08 1.13 1.26 1.42 1.66 1.96 2.02 1.83 1.61 1.37 1.28 1.32 1.23 1.11 1.00 1.01 1.18 1.31 1.33 1.19 1.21 1.23 1.10 1.00 0.92 0.90 0.78 0.75 0.72 0.80 0.96 1.65 2.32 2.62 2.73 2.55 2.38 2.39 2.43 2.41
0.90 1.00 0.83 0.74 0.88 1.05 1.17 1.30 1.58 1.65 1.58 1.46 1.26 1.17 1.28 1.30 1.18 1.13 1.11 1.15 1.17 1.15 1.17 1.15 1.19 1.16 0.97 0.88 0.88 0.92 0.88 0.83 0.90 1.13 1.66 2.18 2.59 2.88 2.78 2.66 2.68 2.67 2.79
0.92 0.96 0.87 0.75 0.73 0.81 0.86 0.97 1.12 1.28 1.36 1.38 1.34 1.16 1.17 1.30 1.26 1.22 1.16 1.21 1.09 1.01 1.08 1.14 1.17 1.19 1.08 0.94 0.90 0.92 1.00 0.93 0.94 1.08 1.38 1.84 2.41 2.88 3.07 2.98 2.77 2.65 2.71
0.87 0.96 0.92 0.81 0.79 0.81 0.77 0.77 0.77 0.92 1.09 1.21 1.25 1.16 1.18 1.28 1.29 1.34 1.27 1.21 1.15 1.06 1.09 1.26 1.22 1.24 1.22 1.15 0.99 0.99 1.02 0.96 0.95 0.99 1.13 1.49 1.87 2.31 2.83 3.18 3.01 2.75 2.53
0.84 0.90 0.95 0.91 0.92 0.92 0.87 0.83 0.69 0.73 0.84 1.01 1.15 1.15 1.22 1.20 1.14 1.21 1.23 1.17 1.15 1.16 1.18 1.23 1.27 1.34 1.26 1.16 1.12 1.08 1.06 1.02 0.93 0.96 0.93 1.08 1.21 1.59 2.09 2.56 2.88 2.89 2.72
0.85 0.91 0.99 0.99 1.03 1.04 1.04 1.01 0.92 0.94 1.03 1.10 1.26 1.25 1.21 1.25 1.21 1.20 1.23 1.22 1.25 1.29 1.28 1.31 1.38 1.37 1.32 1.32 1.28 1.24 1.11 1.08 1.02 1.00 0.93 0.93 1.01 1.05 1.32 1.65 2.05 2.44 2.67
0.80 0.84 0.90 1.00 1.06 1.09 1.13 1.22 1.31 1.33 1.32 1.33 1.40 1.34 1.23 1.24 1.29 1.41 1.44 1.44 1.40 1.42 1.41 1.36 1.39 1.32 1.32 1.34 1.26 1.29 1.24 1.19 1.13 1.00 1.02 0.99 1.00 0.95 1.03 1.05 1.23 1.49 1.88
0.73 0.78 0.85 0.92 1.11 1.23 1.29 1.31 1.46 1.51 1.55 1.61 1.65 1.49 1.37 1.41 1.54 1.72 1.80 1.69 1.65 1.64 1.62 1.57 1.62 1.51 1.40 1.44 1.34 1.32 1.28 1.19 1.21 1.18 1.15 1.09 1.13 1.06 1.00 0.90 0.90 0.87 1.13
0.61 0.66 0.75 0.81 0.97 1.08 1.14 1.29 1.51 1.68 1.84 1.94 2.00 1.87 1.72 1.69 1.85 1.99 1.91 1.99 2.00 1.86 1.86 1.92 1.96 1.92 1.74 1.61 1.67 1.56 1.31 1.13 1.20 1.17 1.16 1.21 1.21 1.29 1.27 1.11 0.98 0.92 0.93
0.39 0.44 0.54 0.66 0.73 0.87 1.05 1.30 1.52 1.82 1.90 1.96 2.05 2.08 1.98 1.92 2.07 2.11 2.18 2.26 2.29 2.29 2.22 2.12 2.23 2.37 2.12 1.89 1.99 2.27 1.90 1.56 1.21 0.99 1.11 1.18 1.22 1.44 1.47 1.26 1.05 0.99 0.99
0.32 0.34 0.43 0.55 0.71 0.95 1.20 1.51 1.79 2.08 2.20 2.25 2.19 2.22 2.23 2.24 2.29 2.33 2.38 2.43 2.44 2.29 2.28 2.39 2.52 2.86 2.68 2.31 2.10 2.37 2.21 1.91 1.63 1.19 1.09 1.17 1.24 1.38 1.47 1.50 1.37 1.29 1.19
0.30 0.37 0.49 0.69 0.91 1.19 1.54 1.90 2.17 2.43 2.56 2.40 2.36 2.37 2.33 2.25 2.27 2.39 2.38 2.36 2.32 2.25 2.31 2.38 2.43 2.85 3.07 2.78 2.43 2.02 1.81 1.77 1.88 1.63 1.22 1.16 1.24 1.24 1.33 1.42 1.38 1.44 1.42
0.44 0.53 0.71 0.99 1.30 1.58 1.83 2.03 2.27 2.40 2.41 2.37 2.34 2.34 2.25 2.20 2.17 2.19 2.18 2.27 2.27 2.29 2.35 2.51 2.64 2.91 2.94 2.94 2.76 2.54 2.30 1.98 1.65 1.75 1.71 1.42 1.34 1.24 1.31 1.42 1.47 1.56 1.60
0.63 0.79 0.99 1.17 1.48 1.67 1.82 1.93 2.08 2.23 2.28 2.27 2.28 2.31 2.30 2.26 2.15 2.06 2.00 2.07 2.20 2.33 2.37 2.45 2.61 2.86 2.98 3.06 2.99 2.71 2.60 2.43 2.16 2.06 1.83 1.68 1.63 1.39 1.35 1.38 1.41 1.53 1.69

GEFSSE_prec_meanprecacc_318.txt.gz
Total_Precipitation_Accumulation
2.68 2.56 3.83 4.06 3.42 2.65 2.42 2.37 2.19 2.07 2.08 2.12 1.94 1.82 1.74 1.73 1.59 1.48 1.31 1.21 1.17 1.15 1.20 1.20 1.26 1.37 1.36 1.25 1.15 1.40 1.50 1.47 1.45 1.41 1.55 1.75 1.93 2.13 2.32 2.51 2.77 3.02 2.78
2.19 2.18 3.53 3.81 3.26 2.60 2.24 2.17 2.13 2.03 2.11 2.09 2.06 1.90 1.82 1.69 1.57 1.54 1.31 1.24 1.23 1.19 1.14 1.19 1.29 1.28 1.27 1.29 1.28 1.44 1.47 1.35 1.29 1.41 1.75 2.04 2.07 2.15 2.21 2.24 2.59 2.89 2.67
1.71 1.82 2.68 3.42 3.10 2.60 2.22 2.05 2.10 2.08 2.19 2.17 2.15 1.96 1.82 1.69 1.62 1.51 1.40 1.45 1.40 1.25 1.13 1.10 1.25 1.33 1.30 1.43 1.42 1.43 1.37 1.32 1.33 1.58 2.21 2.95 2.58 2.27 2.22 2.20 2.40 2.36 2.39
1.56 1.64 2.00 2.80 2.68 2.26 2.06 2.03 2.17 2.21 2.32 2.26 2.12 1.91 1.76 1.74 1.67 1.53 1.49 1.60 1.42 1.30 1.17 1.11 1.25 1.42 1.36 1.43 1.41 1.34 1.28 1.36 1.55 1.69 2.18 2.81 2.94 2.47 2.37 2.43 2.38 2.32 2.43
1.51 1.61 2.18 2.79 2.53 2.20 2.00 2.19 2.41 2.44 2.41 2.22 1.99 1.78 1.75 1.79 1.72 1.65 1.64 1.65 1.41 1.31 1.20 1.14 1.24 1.30 1.27 1.28 1.26 1.29 1.32 1.54 1.81 1.71 2.02 2.54 3.12 2.92 2.42 2.37 2.39 2.41 2.59
1.53 1.63 2.09 2.68 2.50 2.27 2.06 2.29 2.44 2.51 2.56 2.45 2.15 1.88 1.80 1.77 1.72 1.66 1.70 1.54 1.40 1.29 1.16 1.12 1.20 1.25 1.23 1.24 1.24 1.27 1.38 1.59 1.65 1.73 2.06 2.51 2.97 2.95 2.49 2.33 2.42 2.66 2.67
1.39 1.42 1.69 2.38 2.48 2.31 2.21 2.43 2.50 2.58 2.76 2.69 2.39 2.20 1.96 1.79 1.73 1.69 1.73 1.56 1.45 1.37 1.29 1.25 1.27 1.28 1.23 1.27 1.24 1.18 1.18 1.21 1.23 1.50 1.78 2.48 2.78 2.73 2.58 2.41 2.35 2.47 2.61
1.46 1.38 1.38 2.04 2.31 2.30 2.34 2.41 2.41 2.43 2.51 2.56 2.35 2.16 1.94 1.78 1.73 1.80 1.82 1.62 1.51 1.37 1.30 1.31 1.36 1.41 1.38 1.36 1.31 1.22 1.15 0.96 0.91 1.15 1.54 2.25 2.70 2.65 2.52 2.56 2.60 2.57 2.80
1.60 1.53 1.43 1.57 1.89 2.23 2.30 2.18 2.20 2.18 2.20 2.34 2.19 2.05 1.87 1.79 1.73 1.75 1.76 1.64 1.56 1.51 1.46 1.44 1.55 1.58 1.47 1.43 1.35 1.25 1.15 0.92 0.93 1.13 1.21 1.97 2.54 2.56 2.36 2.39 2.64 2.85 2.92
1.78 1.65 1.46 1.41 1.50 1.59 1.81 1.97 2.14 2.20 2.19 2.27 2.08 1.87 1.74 1.68 1.56 1.61 1.58 1.56 1.65 1.68 1.74 1.74 1.74 1.66 1.58 1.46 1.34 1.20 1.07 0.87 0.96 1.05 1.38 1.86 2.44 2.62 2.43 2.24 2.27 2.38 2.50
1.57 1.47 1.51 1.51 1.54 1.58 1.53 1.60 1.92 2.06 2.11 2.00 1.91 1.79 1.60 1.35 1.22 1.36 1.45 1.74 1.85 1.92 1.94 1.94 1.86 1.76 1.58 1.38 1.26 1.08 0.90 0.86 1.01 1.13 1.59 2.12 2.56 2.73 2.51 2.19 2.06 2.06 2.14
1.31 1.26 1.32 1.35 1.47 1.52 1.38 1.60 1.90 1.74 1.65 1.42 1.44 1.31 1.34 1.27 1.21 1.03 1.24 1.68 1.83 1.82 1.77 1.83 1.86 1.63 1.32 0.99 0.94 0.88 0.79 0.77 0.83 1.00 1.59 2.33 2.67 2.76 2.46 2.26 2.18 2.11 2.17
1.12 1.07 1.02 1.08 1.13 1.26 1.42 1.66 1.96 2.03 1.84 1.61 1.37 1.29 1.33 1.25 1.14 1.02 1.04 1.21 1.34 1.37 1.21 1.22 1.24 1.11 1.01 0.93 0.91 0.79 0.76 0.74 0.82 0.99 1.69 2.36 2.66 2.79 2.61 2.43 2.43 2.47 2.45
0.92 1.01 0.84 0.75 0.89 1.06 1.17 1.30 1.58 1.65 1.58 1.47 1.27 1.18 1.28 1.31 1.18 1.13 1.12 1.16 1.18 1.16 1.18 1.15 1.20 1.17 0.99 0.89 0.89 0.92 0.89 0.84 0.91 1.15 1.70 2.22 2.63 2.93 2.85 2.72 2.73 2.73 2.84
0.94 0.97 0.87 0.75 0.74 0.81 0.86 0.97 1.12 1.28 1.36 1.38 1.35 1.16 1.17 1.30 1.26 1.22 1.16 1.21 1.09 1.02 1.08 1.15 1.18 1.20 1.10 0.95 0.90 0.92 1.00 0.94 0.95 1.10 1.41 1.88 2.44 2.92 3.14 3.07 2.86 2.72 2.78
0.89 0.98 0.93 0.81 0.79 0.82 0.78 0.77 0.77 0.92 1.09 1.22 1.26 1.16 1.18 1.28 1.29 1.34 1.28 1.22 1.15 1.07 1.10 1.27 1.23 1.25 1.23 1.15 0.99 0.99 1.02 0.97 0.96 1.00 1.15 1.52 1.90 2.35 2.89 3.27 3.08 2.80 2.58
0.86 0.92 0.97 0.92 0.93 0.93 0.88 0.84 0.70 0.74 0.84 1.01 1.16 1.16 1.23 1.20 1.14 1.21 1.23 1.18 1.16 1.17 1.19 1.24 1.28 1.35 1.27 1.17 1.12 1.08 1.06 1.02 0.93 0.97 0.94 1.10 1.24 1.63 2.15 2.63 2.95 2.93 2.75
0.87 0.94 1.03 1.01 1.04 1.05 1.06 1.02 0.94 0.96 1.04 1.11 1.27 1.25 1.21 1.25 1.21 1.20 1.23 1.22 1.25 1.29 1.28 1.31 1.39 1.38 1.34 1.33 1.28 1.24 1.11 1.08 1.02 1.00 0.94 0.94 1.02 1.07 1.35 1.69 2.10 2.47 2.69
0.81 0.87 0.93 1.03 1.08 1.10 1.14 1.23 1.32 1.34 1.33 1.34 1.40 1.34 1.23 1.25 1.30 1.41 1.44 1.45 1.40 1.42 1.42 1.37 1.39 1.32 1.33 1.34 1.27 1.29 1.24 1.20 1.13 1.00 1.02 0.99 1.00 0.96 1.05 1.08 1.26 1.51 1.91
0.74 0.79 0.87 0.95 1.14 1.26 1.31 1.32 1.47 1.52 1.56 1.62 1.66 1.50 1.37 1.42 1.55 1.73 1.81 1.70 1.66 1.65 1.63 1.57 1.62 1.52 1.40 1.44 1.34 1.32 1.29 1.19 1.22 1.18 1.16 1.10 1.13 1.07 1.01 0.93 0.92 0.89 1.15
0.62 0.67 0.77 0.83 0.99 1.11 1.18 1.31 1.53 1.70 1.86 1.95 2.01 1.87 1.74 1.71 1.86 2.01 1.92 2.00 2.01 1.87 1.87 1.93 1.96 1.93 1.75 1.61 1.67 1.56 1.32 1.13 1.20 1.17 1.17 1.22 1.22 1.30 1.29 1.13 1.00 0.94 0.95
0.40 0.45 0.55 0.67 0.74 0.88 1.07 1.32 1.54 1.85 1.93 2.01 2.09 2.09 1.99 1.93 2.08 2.12 2.19 2.28 2.30 2.30 2.23 2.12 2.23 2.38 2.12 1.89 2.00 2.28 1.91 1.56 1.22 1.00 1.11 1.19 1.24 1.46 1.50 1.28 1.07 1.02 1.02
0.32 0.35 0.43 0.56 0.72 0.97 1.21 1.52 1.79 2.09 2.21 2.28 2.24 2.26 2.25 2.26 2.30 2.34 2.40 2.44 2.45 2.31 2.30 2.40 2.53 2.87 2.68 2.31 2.10 2.38 2.23 1.93 1.64 1.21 1.10 1.18 1.25 1.40 1.49 1.53 1.41 1.31 1.21
0.31 0.37 0.50 0.70 0.92 1.20 1.55 1.91 2.17 2.43 2.57 2.41 2.39 2.40 2.37 2.28 2.28 2.39 2.39 2.37 2.33 2.27 2.33 2.40 2.45 2.87 3.09 2.79 2.44 2.03 1.82 1.78 1.90 1.64 1.23 1.16 1.25 1.27 1.36 1.45 1.42 1.48 1.45
0.45 0.54 0.72 0.99 1.30 1.58 1.83 2.03 2.28 2.41 2.43 2.38 2.35 2.36 2.26 2.22 2.19 2.20 2.19 2.27 2.28 2.30 2.36 2.53 2.66 2.93 2.96 2.96 2.77 2.54 2.31 1.99 1.66 1.76 1.72 1.43 1.35 1.26 1.33 1.45 1.50 1.59 1.62
0.63 0.80 0.99 1.18 1.48 1.68 1.82 1.94 2.09 2.23 2.29 2.28 2.29 2.33 2.31 2.27 2.16 2.07 2.01 2.08 2.21 2.34 2.38 2.46 2.62 2.88 3.00 3.09 3.01 2.72 2.61 2.44 2.17 2.07 1.84 1.69 1.65 1.41 1.36 1.40 1.43 1.55 1.72